LILACSAT-2 (40908 NORAD) Tracking and Keplerian Element Data

This shows tracking and keplerian element data for the satellite.

Feedback or suggestion? Click here.




ElementValue
Catalog40908
NameLILACSAT-2
Epoch Orbit50146
Epoch Day286.87525546
Epoch Year2024
RAAN296.7192
Inclination97.5242
Eccentricity0.0009291
Argument of Perigee301.7871
Mean Anonmoly58.2463
Mean Motion15.30216146
Decay Rate0.00019836
L11 40908U 15049K 24286.87525546 .00019836 00000+0 67932-3 0 9990
L22 40908 97.5242 296.7192 0009291 301.7871 58.2463 15.30216146501469



Live tracking and technical data element details for LILACSAT-2 (NORAD 40908). LILACSAT-2 can be tracked NOW for your location showing map with azimuth and elevation plus other details from your city location.







IsCatalogInMostPopularTable: catalog: 40908, numindb: 522
Update: records affected: 1



GetName: 40908 LILACSAT-2

Hit Count: updated at: Sat, 25 Jan 2025 00:07:35 GMT